EW9551 Weather Reports


Display with metric or nautical units.
time (UTC)temp
F
wind
direction
speed
MPH
gust
MPH
rain 1hr
in
rain 24hr
in
rain mn
in
humidity
%
barometer
mb
20260509073839 66 232 0.0 3.0 0.00 0.00 0.00 60 975.4
20260509070840 64 178 0.0 0.0 0.00 0.00 0.00 65 975.3
20260509063840 60 185 0.0 0.0 0.00 0.00 0.00 72 975.3
20260509060833 57 154 0.0 0.0 0.00 0.00 0.00 76 975.3
20260509053835 56 188 0.0 0.0 0.00 0.00 0.00 77 975.0
20260509050835 55 178 0.0 1.0 0.00 0.00 0.00 76 975.0
20260509043833 56 203 0.0 1.0 0.00 0.00 0.00 76 974.8
20260509040833 56 176 0.0 2.0 0.00 0.00 0.00 75 974.6
20260509035222 56 174 0.0 5.0 0.00 0.00 0.00 74 974.8
20260509030832 56 0 0.0 4.0 0.00 0.00 0.00 74 974.8
20260509023830 57 169 0.0 5.0 0.00 0.00 0.00 73 974.8
20260509020830 57 130 0.0 4.0 0.00 0.00 0.00 73 974.8
20260509013830 56 177 0.0 3.0 0.00 0.00 0.00 73 974.7
20260509010829 56 0 0.0 4.0 0.00 0.00 0.00 74 974.9
20260509003825 56 0 0.0 4.0 0.00 0.00 0.00 72 974.8
20260509000826 56 0 0.0 6.0 0.00 0.00 0.00 71 974.6
20260508233826 56 0 0.0 1.0 0.00 0.00 0.00 73 974.7
20260508230825 57 0 0.0 2.0 0.00 0.00 0.00 72 974.9
20260508223825 57 0 0.0 0.0 0.00 0.00 0.00 72 974.9
20260508220822 58 178 0.0 2.0 0.00 0.00 0.00 70 974.8
20260508215152 58 167 0.0 1.0 0.00 0.00 0.00 68 974.6
20260508210822 59 0 0.0 1.0 0.00 0.00 0.00 66 974.4
20260508203822 60 0 0.0 2.0 0.00 0.00 0.00 65 974.2
20260508200820 60 0 0.0 2.0 0.00 0.00 0.00 63 974.0
20260508193821 62 182 0.0 5.0 0.00 0.00 0.00 61 973.6
20260508190819 63 180 0.0 5.0 0.00 0.00 0.00 59 973.0
20260508190546 65 0 0.0 1.0 0.00 0.00 0.00 59 972.5
20260508180820 67 0 0.0 3.0 0.00 0.00 0.00 57 972.3
20260508173819 69 204 1.0 14.0 0.00 0.00 0.00 55 972.2
20260508170818 70 194 1.0 13.0 0.00 0.00 0.00 53 972.1
20260508163817 71 0 0.0 5.0 0.00 0.00 0.00 55 972.0
20260508163607 71 0 0.0 4.0 0.00 0.00 0.00 54 971.6
20260508153818 72 205 0.0 4.0 0.00 0.00 0.00 55 971.8
20260508153540 73 207 0.0 8.0 0.00 0.00 0.00 52 971.9
20260508143817 73 0 0.0 5.0 0.00 0.00 0.00 55 972.2
20260508140816 75 177 0.0 2.0 0.00 0.00 0.00 52 972.4
20260508133813 75 205 0.0 1.0 0.00 0.00 0.00 53 972.6
20260508130814 76 0 0.0 0.0 0.00 0.00 0.00 53 972.7
20260508123814 75 0 0.0 0.0 0.00 0.00 0.00 56 972.7
20260508120811 75 0 0.0 0.0 0.00 0.00 0.00 54 972.9
20260508115146 74 0 0.0 0.0 0.00 0.00 0.00 60 973.2
20260508110811 71 0 0.0 0.0 0.00 0.00 0.00 62 973.4
20260508103809 71 0 0.0 4.0 0.00 0.00 0.00 63 973.6
20260508100810 69 21 0.0 3.0 0.00 0.00 0.00 64 973.9
20260508093810 68 0 0.0 2.0 0.00 0.00 0.00 62 974.0
20260508090806 67 116 0.0 0.0 0.00 0.00 0.00 69 974.1
20260508085147 64 135 0.0 0.0 0.00 0.00 0.00 71 974.3
20260508080803 62 9 0.0 0.0 0.00 0.00 0.00 73 974.2